SPACEBEE-8

Last updated on Mon Apr 26 2021 06:52:18 GMT+0000 (Coordinated Universal Time)

1 44371U 19037G 21115.38628577 .04142189 47795-1 31371-2 0 9994 2 44371 44.9858 123.2481 0004816 133.1113 227.0208 16.18815125103364

Satellite not in orbit